Regional Weather Roundup
Issued by NWS

Home | Current Version | Previous Version | Text Only | Print | Product List | Glossary On
Versions: 1 2 3 4 5 6 7 8 9 10 11 12 13 14 15 16 17 18 19 20 21 22 23 24 25 26 27 28 29 30 31 32 33 34 35 36 37 38 39 40 41 42 43 44 45 46 47 48 49 50
000
ASUS43 KIND 191309
RWRIN

WEATHER ROUNDUP FOR INDIANA
NATIONAL WEATHER SERVICE INDIANAPOLIS IN
900 AM EDT SUN APR 19 2015

NOTE: "FAIR" INDICATES FEW OR NO CLOUDS BELOW 12,000 FEET WITH NO
SIGNIFICANT WEATHER AND/OR OBSTRUCTIONS TO VISIBILITY.

* - STATION DOES NOT REPORT WEATHER SUCH AS PRECIPITATION OR FOG.

+ - STATION NOT QUALITY CONTROLLED BY THE NATIONAL WEATHER SERVICE.
    USE DATA WITH CAUTION...ESPECIALLY DEWPOINT AND RELATIVE
    HUMIDITY OBSERVATIONS.

INZ001>003-010>013-019-020-191400-
NORTHWEST INDIANA

CITY           SKY/WX    TMP DP  RH WIND       PRES   REMARKS
GARY /AIRPORT/ PTSUNNY   57  27  30 MISG      29.85F
KNOX *+        PTSUNNY   54  12  19 E13       29.85F
MICHIGAN CITY+ MOSUNNY   54  25  32 SE9G17    29.87F
MONTICELLO +   MOSUNNY   55  40  57 E8        29.81F
RENSSELAER +   MOSUNNY   54  39  58 E14       29.83F
VALPARAISO     MOSUNNY   56  33  42 E16       29.86F

$$

LMZ046-743>745-191400-
SOUTHERN LAKE MICHIGAN

STATION/POSITION TIME  TEMP WIND        PRES
                       AIR  DIR/SP/G
                 (UTC) (F)  (DEG/KT/KT) (MB)
BURNS HARBOR     1200   56  120/ 16/ 26 1011.2F
MICHIGAN CITY    1300   55   90/ 18/ 24   N/A
4NW MICH CITY    1300   52  130/ 14/ 17   N/A

$$

INZ004-005-014>016-021>024-191400-
NORTH CENTRAL INDIANA

CITY           SKY/WX    TMP DP  RH WIND       PRES   REMARKS
GOSHEN         PTSUNNY   53  35  50 E20       29.89F
LOGANSPORT +   MOSUNNY   52  37  58 E13       29.84F
PERU/GRISSOM   MOSUNNY   53  39  58 E17       29.82F
ROCHESTER +    PTSUNNY   55  36  47 E15G21    29.86F
SOUTH BEND     PTSUNNY   55  29  36 E15       29.90F
WARSAW +       PTSUNNY   54  34  47 E12G18    29.88F

$$

INZ006>009-017-018-025>027-191400-
NORTHEAST INDIANA

CITY           SKY/WX    TMP DP  RH WIND       PRES   REMARKS
ANGOLA *+      SUNNY     52  32  46 E12       29.93F
AUBURN +       PTSUNNY   52  32  46 E12G22    29.93F
FORT WAYNE     PTSUNNY   52  35  52 E16       29.90F
HUNTINGTON +   MOSUNNY   52  32  46 E14G21    29.88F

$$

INZ028-029-035-036-043>045-051>053-191400-
WEST CENTRAL INDIANA

CITY           SKY/WX    TMP DP  RH WIND       PRES   REMARKS
CRAWFORDSVL +  CLOUDY    56  40  55 E10       29.78F
GREENCASTLE +  CLOUDY    59  43  55 E12       29.77F
LAFAYETTE      PTSUNNY   52  42  69 E12       29.80F
TERRE HAUTE    CLOUDY    62  49  62 E7        29.74F

$$

INZ030>032-037>040-046>048-054>057-064-065-191400-
CENTRAL INDIANA

CITY           SKY/WX    TMP DP  RH WIND       PRES   REMARKS
CP ATTERBURY + RAIN      61  50  67 E6        29.79F
COLUMBUS       CLOUDY    59  46  63 E12       29.78F
FISHERS *+     CLOUDY    55  46  71 CALM      29.80
FRANKFORT +    PTSUNNY   55  42  62 NE15G22   29.82F
GREENWOOD *+   CLOUDY    59  43  55 E8        29.79F
INDIANAPOLIS   LGT RAIN  61  44  53 E14       29.77F
-EAGLE CREEK   CLOUDY    58  45  62 E8        29.79F
KOKOMO *+      MOSUNNY   54  39  58 E17       29.83F
MARION +       MOSUNNY   52  38  58 E16G22    29.84F
MT COMFORT *+  CLOUDY    59  36  41 E13       29.81F
SHELBYVILLE    CLOUDY    62  46  55 E12       29.79F
ZIONSVILLE +   PTSUNNY   56  41  58 E9        29.81F

$$

INZ033-034-041-042-049-050-058-059-191400-
EAST CENTRAL INDIANA

CITY           SKY/WX    TMP DP  RH WIND       PRES   REMARKS
MUNCIE         PTSUNNY   56  41  57 E14       29.84F

$$

INZ060-061-067>069-081>083-085>088-191400-
SOUTHWEST INDIANA

CITY           SKY/WX    TMP DP  RH WIND       PRES   REMARKS
EVANSVILLE     HVY RAIN  59  57  93 NE8       29.69F VSB 3/4
HUNTINGBURG *+ CLOUDY    59  54  82 E10       29.71F
WASHINGTON +   LGT RAIN  60  53  77 E8        29.72F

$$

INZ062-063-066-070>080-084-089>092-191400-
SOUTH CENTRAL AND SOUTHEAST INDIANA

CITY           SKY/WX    TMP DP  RH WIND       PRES   REMARKS
BEDFORD +      RAIN      59  50  72 E8        29.76F
BLOOMINGTON    LGT RAIN  63  48  58 SE12      29.75F
MADISON *+     CLOUDY    57  50  77 E9        29.81F
NORTH VERNON + LGT RAIN  61  48  63 E7        29.80F

$$



USA.gov is the U.S. government's official web portal to all federal, state and local government web resources and services.